User: anonymous   Login
Location: Vinland
(47.7731°N, 122.6974°W)
Time: 06:50:01
(UTC+00:00)
Language:

SR - Orbit

View from above orbital plane
View from above orbital plane
View from above satellite
View from above satellite

Ground track
Ground track

The orbit data is extracted from the following two-line orbital elements,

1    46U 60007B   24106.57723671  .00003769  00000-0  73998-3 0  9998
2    46  66.6905 224.7878 0201789 170.0420 190.4785 14.51689950341799
Epoch (UTC): 15 April 2024 13:51:13
Eccentricity: 0.0201789
inclination: 66.6905°
perigee height: 577 km
apogee height: 863 km
right ascension of ascending node: 224.7878°
argument of perigee: 170.0420°
revolutions per day: 14.51689950
mean anomaly at epoch: 190.4785°
orbit number at epoch: 34179

The dashed part of the orbit path shows where the satellite is in the earth's shadow,  

DLR